STARLINK-11188 [DTC] (60722 NORAD) Tracking and Keplerian Element Data

This shows tracking and keplerian element data for the satellite.

Feedback or suggestion? Click here.




ElementValue
Catalog60722
NameSTARLINK-11188 [DTC]
Epoch Orbit840
Epoch Day286.84176456
Epoch Year2024
RAAN124.6188
Inclination53.1583
Eccentricity0.0001346
Argument of Perigee108.3302
Mean Anonmoly251.7862
Mean Motion15.69773919
Decay Rate0.00058581
L11 60722U 24152C 24286.84176456 .00058581 00000+0 48369-3 0 9993
L22 60722 53.1583 124.6188 0001346 108.3302 251.7862 15.69773919 8405



Live tracking and technical data element details for STARLINK-11188 [DTC] (NORAD 60722). STARLINK-11188 [DTC] can be tracked NOW for your location showing map with azimuth and elevation plus other details from your city location.







IsCatalogInMostPopularTable: catalog: 60722, numindb: 10
Update: records affected: 1



GetName: 60722 STARLINK-11188 [DTC]

Hit Count: updated at: Tue, 03 Dec 2024 02:44:56 GMT